logo tempoitalia

Diretta Meteo Claremore, Stati Uniti (USA)lunedì 31 agosto ore 01:35

Mappa
Sereno 27 °C Sereno 24 Ore: T.min 21 T.max 39
Ponente Sud-Est Km/h 16.7 Punto di rugiada: 17 °C Umidità: 54% Visibilità: 10 Km
Il sole sorge alle: 06:52 Il sole tramonta alle: 19:51
31 Agosto 2026 01:35 tempo osservato: Sereno Sereno 27 54 1014 vento: Nord SE 16.7
31 Agosto 2026 01:15 tempo osservato: Sereno Sereno 27 54 1014 vento: Nord SE 14.8
31 Agosto 2026 00:55 tempo osservato: Sereno Sereno 28 51 1014 vento: Nord SE 14.8
31 Agosto 2026 00:35 tempo osservato: Sereno Sereno 27 54 1014 vento: Nord SE 14.8
31 Agosto 2026 00:15 tempo osservato: Sereno Sereno 27 54 1014 vento: Nord SE 13
30 Agosto 2026 23:55 tempo osservato: Sereno Sereno 27 54 1014 vento: Nord SE 11.1
30 Agosto 2026 23:35 tempo osservato: Sereno Sereno 28 51 1014 vento: Nord S/SE 11.1
30 Agosto 2026 23:15 tempo osservato: Sereno Sereno 28 51 1013 vento: Nord SE 14.8
30 Agosto 2026 22:55 tempo osservato: Sereno Sereno 29 48 1013 vento: Nord SE 16.7
30 Agosto 2026 22:35 tempo osservato: Sereno Sereno 29 48 1013 vento: Nord SE 13
30 Agosto 2026 22:15 tempo osservato: Sereno Sereno 29 48 1013 vento: Nord SE 11.1
30 Agosto 2026 21:55 tempo osservato: Sereno Sereno 29 48 1013 vento: Nord SE 11.1
30 Agosto 2026 21:35 tempo osservato: Sereno Sereno 30 45 1012 vento: Nord SE 13
30 Agosto 2026 21:15 tempo osservato: Sereno Sereno 29 48 1012 vento: Nord SE 11.1
30 Agosto 2026 20:55 tempo osservato: Sereno Sereno 30 45 1012 vento: Nord SE 11.1
30 Agosto 2026 20:35 tempo osservato: Sereno Sereno 30 45 1012 vento: Nord S/SE 9.3
30 Agosto 2026 20:15 tempo osservato: Sereno Sereno 30 45 1012 vento: Nord S/SE 7.4
30 Agosto 2026 19:55 tempo osservato: Sereno Sereno 31 43 1012 vento: Nord S/SE 9.3
30 Agosto 2026 19:35 tempo osservato: Sereno Sereno 33 38 1012 vento: Nord S/SE 7.4
30 Agosto 2026 19:15 tempo osservato: Sereno Sereno 35 34 1012 vento: Nord S 11.1
30 Agosto 2026 18:55 tempo osservato: Sereno Sereno 36 30 1012 vento: Nord S 14.8
30 Agosto 2026 18:35 tempo osservato: Sereno Sereno 37 28 1012 vento: Nord S 14.8
30 Agosto 2026 18:15 tempo osservato: Sereno Sereno 37 30 1012 vento: Nord S 16.7
30 Agosto 2026 17:55 tempo osservato: Sereno Sereno 38 29 1012 vento: Nord S/SE 14.8
30 Agosto 2026 17:35 tempo osservato: Sereno Sereno 38 27 1012 vento: Nord S/SE 13
30 Agosto 2026 17:15 tempo osservato: Sereno Sereno 38 29 1012 vento: Nord S 22.2
30 Agosto 2026 16:55 tempo osservato: Sereno Sereno 38 27 1012 vento: Nord S/SE 13
30 Agosto 2026 16:35 tempo osservato: Poco Nuvoloso Poco Nuvoloso 38 29 1012 vento: Nord S 20.3
30 Agosto 2026 16:15 tempo osservato: Poco Nuvoloso Poco Nuvoloso 39 27 1012 vento: Nord S 13
30 Agosto 2026 15:55 tempo osservato: Sereno Sereno 38 31 1012 vento: Nord S 22.2
30 Agosto 2026 15:35 tempo osservato: Sereno Sereno 39 27 1012 vento: Nord S/SE 18.5
30 Agosto 2026 15:15 tempo osservato: Sereno Sereno 38 29 1013 vento: Nord S/SE 22.2
30 Agosto 2026 14:55 tempo osservato: Sereno Sereno 38 31 1013 vento: Nord S 20.3
30 Agosto 2026 14:35 tempo osservato: Sereno Sereno 38 31 1013 vento: Nord S 22.2
30 Agosto 2026 14:15 tempo osservato: Sereno Sereno 38 33 1014 vento: Nord S 20.3
30 Agosto 2026 13:55 tempo osservato: Sereno Sereno 38 35 1014 vento: Nord S 24
30 Agosto 2026 13:35 tempo osservato: Sereno Sereno 37 37 1014 vento: Nord S/SO 24
30 Agosto 2026 13:15 tempo osservato: Sereno Sereno 37 37 1014 vento: Nord S/SO 16.7
30 Agosto 2026 12:55 tempo osservato: Sereno Sereno 37 37 1015 vento: Nord S/SO 24
30 Agosto 2026 12:35 tempo osservato: Sereno Sereno 36 39 1015 vento: Nord S 20.3
30 Agosto 2026 12:15 tempo osservato: Sereno Sereno 35 41 1015 vento: Nord S 20.3
30 Agosto 2026 11:55 tempo osservato: Sereno Sereno 35 41 1015 vento: Nord S/SO 20.3
30 Agosto 2026 11:35 tempo osservato: Sereno Sereno 35 41 1015 vento: Nord S 24
30 Agosto 2026 11:15 tempo osservato: Sereno Sereno 33 43 1016 vento: Nord S 24
30 Agosto 2026 10:55 tempo osservato: Sereno Sereno 33 43 1016 vento: Nord S 27.8
30 Agosto 2026 10:35 tempo osservato: Sereno Sereno 32 46 1016 vento: Nord S 24
30 Agosto 2026 10:15 tempo osservato: Sereno Sereno 31 48 1016 vento: Nord S/SO 29.6
30 Agosto 2026 09:55 tempo osservato: Sereno Sereno 31 45 1016 vento: Nord S 22.2
30 Agosto 2026 09:35 tempo osservato: Sereno Sereno 30 45 1016 vento: Nord S 20.3
30 Agosto 2026 09:15 tempo osservato: Sereno Sereno 29 48 1016 vento: Nord S 20.3
30 Agosto 2026 08:55 tempo osservato: Sereno Sereno 28 51 1016 vento: Nord S 20.3
30 Agosto 2026 08:35 tempo osservato: Sereno Sereno 26 57 1016 vento: Nord S 16.7
30 Agosto 2026 08:15 tempo osservato: Sereno Sereno 25 57 1016 vento: Nord S/SE 13
30 Agosto 2026 07:55 tempo osservato: Sereno Sereno 24 60 1016 vento: Nord S 13
30 Agosto 2026 07:35 tempo osservato: Sereno Sereno 23 64 1016 vento: Nord S/SE 7.4
30 Agosto 2026 07:15 tempo osservato: Sereno Sereno 23 64 1016 vento: Nord S/SE 13
30 Agosto 2026 06:55 tempo osservato: Sereno Sereno 22 68 1015 vento: Nord S/SE 11.1
30 Agosto 2026 06:35 tempo osservato: Sereno Sereno 22 68 1015 vento: Nord S/SE 7.4
30 Agosto 2026 06:15 tempo osservato: Sereno Sereno 22 68 1015 vento: Nord S/SE 7.4
30 Agosto 2026 05:55 tempo osservato: Sereno Sereno 23 64 1015 vento: Nord S/SE 9.3
30 Agosto 2026 05:35 tempo osservato: Sereno Sereno 23 64 1015 vento: Nord S/SE 11.1
30 Agosto 2026 05:15 tempo osservato: Sereno Sereno 23 64 1015 vento: Nord S/SE 7.4
30 Agosto 2026 04:55 tempo osservato: Sereno Sereno 22 73 1015 vento: Nord S/SE 9.3
30 Agosto 2026 04:35 tempo osservato: Sereno Sereno 21 77 1015 vento: Nord N 5.5
30 Agosto 2026 04:15 tempo osservato: Sereno Sereno 22 73 1015 vento: Nord N 0
30 Agosto 2026 03:55 tempo osservato: Sereno Sereno 23 68 1015 vento: Nord SE 7.4
30 Agosto 2026 03:35 tempo osservato: Sereno Sereno 24 60 1015 vento: Nord SE 7.4
30 Agosto 2026 03:15 tempo osservato: Sereno Sereno 24 60 1014 vento: Nord SE 7.4
30 Agosto 2026 02:55 tempo osservato: Sereno Sereno 25 57 1014 vento: Nord SE 9.3
30 Agosto 2026 02:35 tempo osservato: Poco Nuvoloso Poco Nuvoloso 25 57 1014 vento: Nord SE 7.4
30 Agosto 2026 02:15 tempo osservato: Nuvoloso Nuvoloso 26 54 1014 vento: Nord SE 11.1
30 Agosto 2026 01:55 tempo osservato: Sereno Sereno 26 54 1014 vento: Nord SE 13
30 Agosto 2026 01:35 tempo osservato: Poco Nuvoloso Poco Nuvoloso 26 54 1014 vento: Nord SE 11.1